[[{"header":{"parameterUnit":"m.s-1","parameterCategory":1,"la1":30.2991,"la2":30.254,"lo1":-89.0895,"lo2":-89.0444,"dy":0.0017,"dx":0.0017,"nx":28,"ny":28,"refTime":"2023-10-19T03:00:00:Z","depth":0,"parameterNumber":2,"parameterNumberName":"U-component_of_WINDS"},"data":[0,0,0,0,0,0,0,0,0,0,0,0,0,0,0,0,0,0,0,0,0,0,0,0,0,0,0,0,0,0,0,0,0,0,0,0,0,0,0,0,0,0,0,0,0,0,0,0,0,0,0,0,0,0,0,0,0,0,1.2292,1.2292,0,1.2286,1.2285,1.2285,1.2256,1.2255,1.2254,1.2254,1.2246,1.2246,1.2247,0,0,0,0,0,0,0,0,0,0,0,0,0,1.2276,1.2277,1.2292,1.2292,1.2292,1.2286,1.2285,1.2285,1.2256,1.2255,1.2254,1.2253,1.2246,1.2246,1.2247,0,0,0,0,0,0,0,0,0,0,0,0,0,1.2278,1.2277,1.2292,1.2276,1.2275,1.2286,1.2285,1.2285,1.2256,1.2255,1.2254,1.2253,1.2246,1.2246,1.2247,1.2272,0,0,1.2249,1.2249,0,0,0,0,0,0,0,0,1.2278,1.2278,1.2279,1.2278,1.2276,1.227,1.2277,1.2281,1.2256,1.2263,1.2254,1.2253,1.2255,1.2255,1.2256,1.2271,1.2271,1.2249,1.2249,1.225,1.225,0,0,0,0,0,0,0,1.2278,1.2278,1.2289,1.2279,1.2277,1.2269,1.2268,1.2277,1.2265,1.2263,1.226,1.226,1.2254,1.2255,1.2255,1.2271,1.2249,1.2249,1.225,1.225,1.2303,1.2304,0,0,0,0,0,0,1.228,1.2278,1.229,1.2289,1.2274,1.227,1.2269,1.2273,1.2265,1.2262,1.2261,1.2259,1.2254,1.2255,1.2255,1.2281,1.225,1.225,1.2251,1.2302,1.2303,1.2304,0,0,0,0,0,0,1.228,1.2281,1.229,1.2283,1.2284,1.2271,1.2276,1.2274,1.2275,1.2264,1.2261,1.2265,1.2254,1.2254,1.2267,1.228,1.225,1.2251,1.2301,1.2302,1.2304,1.2335,0,0,0,0,0,0,1.2279,1.2281,1.2291,1.2284,1.2284,1.2303,1.2277,1.2274,1.2276,1.2273,1.2266,1.2264,1.2253,1.2266,1.2268,1.2281,1.2252,1.23,1.2302,1.2303,1.2332,1.2337,1.2341,0,0,0,0,0,1.2279,1.2301,1.2292,1.2294,1.2297,1.2304,1.2304,1.2291,1.2278,1.2287,1.2279,1.2264,1.2279,1.2268,1.2269,1.2282,1.2299,1.2301,1.2303,1.233,1.2336,1.2341,0,0,0,0,0,0,1.231,1.2299,1.229,1.231,1.2308,1.2299,1.231,1.2298,1.23,1.2297,1.228,1.2279,1.2293,1.229,1.2277,1.2304,1.2286,1.2289,1.2306,1.2312,1.2316,1.2316,1.2252,0,0,0,0,0,1.232,1.2327,1.2317,1.2336,1.2335,1.2323,1.2326,1.2316,1.2313,1.2312,1.2305,1.2303,1.2306,1.2309,1.2312,1.2332,1.2329,1.2342,1.2346,1.235,1.2351,1.2359,1.2364,1.2312,1.2312,1.2312,0,0,1.2339,1.2334,1.234,1.2342,1.2339,1.2346,1.2323,1.2332,1.2336,1.2313,1.2324,1.2319,1.2315,1.2331,1.2338,1.2328,1.2365,1.2353,1.2356,1.2355,1.2362,1.2367,1.2371,1.2313,1.2313,1.2313,0,0,1.2377,1.2375,1.2389,1.2386,1.2382,1.2374,1.2377,1.237,1.2365,1.2376,1.2359,1.2364,1.2371,1.2368,1.2367,1.2402,1.2388,1.2404,1.2425,1.2433,1.2437,1.244,1.245,1.2454,1.2406,1.2406,1.2406,0,1.2401,1.2411,1.2397,1.2407,1.2407,1.2387,1.2399,1.2398,1.2395,1.2395,1.2385,1.2392,1.2388,1.2401,1.241,1.2411,1.2413,1.2403,1.2438,1.2441,1.2444,1.2453,1.2457,1.2408,1.2407,1.2407,1.2407,0,1.2439,1.2447,1.2458,1.2455,1.2457,1.2469,1.2455,1.2459,1.2448,1.244,1.2451,1.2445,1.2445,1.2448,1.2438,1.246,1.2453,1.2441,1.2422,1.2451,1.2459,1.2463,1.241,1.241,1.2409,1.2409,0,0,1.2497,1.2485,1.2489,1.2487,1.248,1.2485,1.2495,1.2495,1.2497,1.2496,1.2501,1.2507,1.2495,1.2494,1.2484,1.2491,1.2515,1.2477,1.2476,1.2482,1.2535,1.2543,1.2548,1.2506,1.2507,1.2508,1.2535,0,1.2531,1.2546,1.2533,1.2551,1.2556,1.2536,1.2544,1.254,1.2533,1.2535,1.2527,1.253,1.2515,1.2514,1.252,1.2511,1.2525,1.2509,1.251,1.251,1.251,1.2553,1.2562,1.2587,1.2538,1.2539,1.2539,0,1.2573,1.2572,1.259,1.258,1.2581,1.2589,1.2586,1.259,1.2584,1.2578,1.2577,1.2564,1.2571,1.2554,1.2562,1.2551,1.255,1.2546,1.2547,1.2545,1.2525,1.2549,1.2596,1.2599,1.2545,1.2544,1.2544,0,1.2609,1.2613,1.2624,1.2622,1.2612,1.2617,1.2613,1.2606,1.2607,1.2605,1.2604,1.2603,1.2602,1.2601,1.2588,1.2577,1.2597,1.2579,1.259,1.259,1.2594,1.2594,1.2639,1.2598,1.2597,1.2597,1.2597,0,1.2647,1.2658,1.2639,1.2646,1.2657,1.2641,1.2653,1.2646,1.264,1.2644,1.2628,1.2631,1.2614,1.2615,1.2605,1.2612,1.2612,1.2606,1.2603,1.2606,1.2607,1.2605,1.2602,1.2598,1.2598,1.2598,1.2598,0,1.2689,1.2678,1.2687,1.2676,1.2673,1.2682,1.2672,1.2676,1.2668,1.2672,1.2672,1.2659,1.2659,1.2646,1.2644,1.2637,1.2648,1.2642,1.2649,1.2647,1.2658,1.2656,1.2701,1.2706,1.2664,1.2664,1.2665,0,1.2713,1.2721,1.271,1.2711,1.2708,1.271,1.271,1.2695,1.2695,1.2689,1.2693,1.2693,1.2691,1.2693,1.2682,1.268,1.2673,1.2689,1.2672,1.2675,1.267,1.2669,1.2669,1.2692,1.2692,1.2693,1.2693,0,1.2756,1.2749,1.275,1.2748,1.2748,1.2745,1.2742,1.2744,1.2727,1.2728,1.2728,1.2727,1.2724,1.2723,1.2719,1.2713,1.27,1.2698,1.27,1.2703,1.2706,1.2702,1.2656,1.2697,1.2697,1.2696,1.2696,1.2696,1.2788,1.2793,1.2786,1.2786,1.2782,1.2778,1.2781,1.2773,1.2773,1.2769,1.2761,1.2762,1.2754,1.2747,1.2743,1.2742,1.2734,1.2738,1.2739,1.2739,1.274,1.2708,1.2742,1.2742,1.2742,1.2742,1.2741,0,1.2828,1.2822,1.2823,1.2818,1.2817,1.2805,1.28,1.2801,1.2802,1.2796,1.2795,1.2794,1.2792,1.2781,1.2778,1.2779,1.2773,1.2779,1.2778,1.2776,1.2749,1.2746,1.2784,1.2784,1.2784,1.2784,1.2784,1.2784,1.2848,1.2855,1.2848,1.2851,1.2845,1.2846,1.2844,1.284,1.2835,1.2835,1.2833,1.2826,1.2818,1.2814,1.2811,1.2807,1.2806,1.2814,1.2808,1.2782,1.2778,1.2774,1.2772,1.2814,1.2814,1.2835,1.2835,1.2835]},{"header":{"parameterUnit":"m.s-1","parameterCategory":1,"la1":30.2991,"la2":30.254,"lo1":-89.0895,"lo2":-89.0444,"dy":0.0017,"dx":0.0017,"nx":28,"ny":28,"refTime":"2023-10-19T03:00:00:Z","depth":0,"parameterNumber":3,"parameterNumberName":"V-component_of_WINDS"},"data":[0,0,0,0,0,0,0,0,0,0,0,0,0,0,0,0,0,0,0,0,0,0,0,0,0,0,0,0,0,0,0,0,0,0,0,0,0,0,0,0,0,0,0,0,0,0,0,0,0,0,0,0,0,0,0,0,0,0,4.0453,4.0453,0,4.0512,4.0513,4.0514,4.0455,4.0452,4.045,4.0448,4.0505,4.0508,4.0512,0,0,0,0,0,0,0,0,0,0,0,0,0,4.0282,4.0285,4.0453,4.0453,4.0454,4.0512,4.0513,4.0514,4.0455,4.0452,4.0449,4.0447,4.0504,4.0508,4.0512,0,0,0,0,0,0,0,0,0,0,0,0,0,4.035,4.0287,4.0452,4.0432,4.0431,4.0512,4.0513,4.0514,4.0456,4.0452,4.0449,4.0445,4.0502,4.0507,4.0513,4.0616,0,0,4.053,4.0532,0,0,0,0,0,0,0,0,4.0346,4.0357,4.0434,4.0433,4.0432,4.0473,4.0474,4.0548,4.0456,4.0446,4.0448,4.0444,4.0497,4.0502,4.0521,4.0619,4.0621,4.053,4.0534,4.0536,4.0537,0,0,0,0,0,0,0,4.0342,4.0354,4.0476,4.0435,4.0434,4.0418,4.0424,4.0487,4.049,4.0447,4.0443,4.0451,4.0495,4.0516,4.0522,4.0622,4.053,4.0535,4.0538,4.054,4.0804,4.0807,0,0,0,0,0,0,4.034,4.035,4.0474,4.0478,4.038,4.0424,4.043,4.0463,4.0489,4.049,4.0454,4.0448,4.0508,4.0515,4.0524,4.0643,4.0536,4.0541,4.0544,4.08,4.0805,4.0809,0,0,0,0,0,0,4.0337,4.0352,4.0472,4.0413,4.0427,4.043,4.0468,4.0466,4.0486,4.0494,4.0494,4.0474,4.0506,4.0516,4.0593,4.0645,4.0544,4.0549,4.0796,4.0802,4.0807,4.0886,0,0,0,0,0,0,4.0332,4.0351,4.0392,4.0414,4.043,4.0542,4.0471,4.047,4.0497,4.0489,4.0514,4.0514,4.0504,4.0585,4.0599,4.065,4.0553,4.0791,4.0798,4.0805,4.0879,4.0894,4.0906,0,0,0,0,0,4.0326,4.0411,4.0394,4.0409,4.0482,4.0545,4.0554,4.0541,4.0501,4.0541,4.0545,4.0514,4.0638,4.0594,4.0608,4.0663,4.0788,4.0796,4.0805,4.0872,4.0891,4.0906,0,0,0,0,0,0,4.0394,4.0414,4.0395,4.0491,4.0517,4.0535,4.0585,4.0562,4.0599,4.059,4.0572,4.0577,4.0659,4.0669,4.0619,4.0762,4.0706,4.0717,4.0752,4.077,4.0783,4.0778,4.0557,0,0,0,0,0,4.042,4.0472,4.0486,4.0569,4.0583,4.0582,4.0609,4.0597,4.0623,4.0633,4.0644,4.0669,4.0712,4.0742,4.0783,4.088,4.0883,4.0925,4.0939,4.095,4.0959,4.1008,4.1026,4.0836,4.0836,4.0836,0,0,4.0474,4.0492,4.0525,4.0583,4.0602,4.0653,4.0592,4.065,4.0687,4.0642,4.0715,4.0723,4.0749,4.0836,4.0875,4.0847,4.1012,4.096,4.0969,4.0973,4.1018,4.1036,4.1052,4.0842,4.0841,4.084,0,0,4.0599,4.0619,4.0689,4.0709,4.0738,4.0737,4.0753,4.0775,4.0779,4.0853,4.0819,4.0862,4.094,4.0959,4.0979,4.1109,4.108,4.1123,4.1194,4.1242,4.1257,4.127,4.1313,4.1329,4.1133,4.1133,4.1133,0,4.0662,4.074,4.0727,4.0787,4.0811,4.0774,4.0843,4.0862,4.0903,4.092,4.0889,4.0983,4.0999,4.1088,4.112,4.1138,4.1154,4.1119,4.1256,4.1269,4.1281,4.1322,4.1339,4.1138,4.1138,4.1137,4.1137,0,4.0815,4.0869,4.0922,4.0963,4.0994,4.1058,4.1052,4.1084,4.1069,4.1071,4.1144,4.1161,4.1204,4.1224,4.1211,4.1311,4.1292,4.1259,4.1201,4.1304,4.1342,4.1358,4.1145,4.1143,4.1142,4.1141,0,0,4.0983,4.1016,4.1035,4.1051,4.1081,4.1121,4.1183,4.1225,4.1252,4.1282,4.133,4.1396,4.1364,4.1387,4.1375,4.1417,4.1515,4.1378,4.1378,4.14,4.1623,4.1646,4.1665,4.1497,4.15,4.1502,4.162,0,4.1107,4.1214,4.1203,4.1304,4.1352,4.1316,4.1369,4.1391,4.1394,4.1434,4.1436,4.1481,4.1438,4.1451,4.1492,4.1495,4.1559,4.1486,4.1539,4.1541,4.1531,4.1685,4.171,4.182,4.1635,4.1638,4.164,0,4.1265,4.13,4.1406,4.1425,4.1445,4.1493,4.1529,4.1569,4.1592,4.1591,4.1616,4.1595,4.1654,4.1597,4.1676,4.1627,4.1648,4.1653,4.1656,4.1659,4.1595,4.1689,4.1856,4.1871,4.1663,4.1662,4.166,0,4.1373,4.1447,4.1519,4.1535,4.156,4.1594,4.1606,4.1626,4.1652,4.1683,4.1699,4.1737,4.1758,4.1787,4.1776,4.1736,4.1856,4.1799,4.1854,4.1854,4.1879,4.1877,4.2048,4.1897,4.1897,4.1897,4.1897,0,4.151,4.1576,4.1568,4.1612,4.1683,4.1669,4.1739,4.1746,4.1765,4.1807,4.178,4.182,4.1805,4.1845,4.1837,4.1901,4.1912,4.191,4.1907,4.1911,4.1911,4.1923,4.1914,4.1901,4.19,4.1899,4.1899,0,4.1642,4.164,4.1716,4.1733,4.1739,4.1791,4.1804,4.1845,4.1845,4.19,4.1911,4.1911,4.1956,4.1949,4.1998,4.1993,4.2073,4.2061,4.2065,4.2061,4.2115,4.2109,4.2298,4.2321,4.2158,4.2159,4.2161,0,4.1729,4.1778,4.1801,4.1828,4.1842,4.1887,4.1913,4.19,4.1928,4.1957,4.1993,4.2035,4.2068,4.214,4.2143,4.218,4.2168,4.2232,4.2173,4.2175,4.2165,4.2161,4.2165,4.2242,4.2244,4.2246,4.2247,0,4.1881,4.1877,4.1916,4.1954,4.1986,4.2015,4.2041,4.2065,4.2054,4.2086,4.2132,4.2157,4.2207,4.2248,4.2283,4.2292,4.2267,4.2266,4.228,4.2283,4.2282,4.228,4.2093,4.2261,4.2259,4.2258,4.2258,4.2257,4.1991,4.2032,4.2054,4.2097,4.2116,4.2141,4.2178,4.2183,4.2221,4.2261,4.2251,4.2302,4.2322,4.2365,4.2379,4.2417,4.2393,4.2414,4.2419,4.2424,4.2429,4.2278,4.2424,4.2423,4.2423,4.2422,4.2422,0,4.214,4.2152,4.2192,4.2229,4.2263,4.2238,4.2265,4.2294,4.2339,4.236,4.2393,4.2444,4.2483,4.2489,4.2526,4.2555,4.2544,4.2564,4.2561,4.2563,4.245,4.2433,4.2573,4.2572,4.2572,4.2572,4.2572,4.2572,4.2221,4.2288,4.2286,4.2361,4.2372,4.2422,4.2439,4.2461,4.2477,4.2536,4.2568,4.2572,4.2587,4.2624,4.2658,4.2659,4.2672,4.2697,4.2693,4.2586,4.2571,4.2557,4.254,4.2701,4.2701,4.2802,4.2803,4.2804]}]]